This is the latest recevied weather packets stored in our database for station/object KO5MO-10. If no packets are shown the sender has not sent any weather packets the latest 10 day(s).
| Time | Temp. | Humidity | Pressure | Rain* | Wind** | Luminosity | Snow |
|---|---|---|---|---|---|---|---|
| 1788148941 | 97° F | 28% | 753.8 mmHg | - | - | - | - |
| 1788148041 | 97° F | 28% | 753.7 mmHg | - | - | - | - |
| 1788147141 | 97° F | 28% | 753.7 mmHg | - | - | - | - |
| 1788146241 | 97° F | 28% | 753.7 mmHg | - | - | - | - |
| 1788145341 | 97° F | 28% | 753.5 mmHg | - | - | - | - |
| 1788144440 | 98° F | 28% | 753.4 mmHg | - | - | - | - |
| 1788143540 | 98° F | 27% | 753.2 mmHg | - | - | - | - |
| 1788142640 | 99° F | 27% | 753.1 mmHg | - | - | - | - |
| 1788141740 | 100° F | 27% | 752.9 mmHg | - | - | - | - |
| 1788140840 | 102° F | 25% | 752.7 mmHg | - | - | - | - |
| 1788139939 | 105° F | 23% | 752.5 mmHg | - | - | - | - |
| 1788139039 | 107° F | 22% | 752.6 mmHg | - | - | - | - |
| 1788138139 | 108° F | 22% | 752.7 mmHg | - | - | - | - |
| 1788137239 | 109° F | 21% | 752.8 mmHg | - | - | - | - |
| 1788136339 | 110° F | 21% | 752.8 mmHg | - | - | - | - |
| 1788135439 | 112° F | 19% | 752.8 mmHg | - | - | - | - |
| 1788134538 | 112° F | 20% | 752.9 mmHg | - | - | - | - |
| 1788133638 | 112° F | 18% | 753.1 mmHg | - | - | - | - |
| 1788132738 | 114° F | 19% | 753.1 mmHg | - | - | - | - |
| 1788131838 | 112° F | 20% | 753.3 mmHg | - | - | - | - |
| 1788130938 | 111° F | 20% | 753.4 mmHg | - | - | - | - |
| 1788130037 | 111° F | 20% | 753.4 mmHg | - | - | - | - |
| 1788129137 | 113° F | 18% | 753.7 mmHg | - | - | - | - |
| 1788128237 | 114° F | 18% | 753.8 mmHg | - | - | - | - |
| 1788127337 | 112° F | 19% | 754.2 mmHg | - | - | - | - |
* Rain since midnight (hover to see other rain measurements)
** Current wind speed in m/s (hover to see current wind gust speed)